Date,TemperatureHighF,TemperatureAvgF,TemperatureLowF,DewpointHighF,DewpointAvgF,DewpointLowF,HumidityHigh,HumidityAvg,HumidityLow,PressureMaxIn,PressureMinIn,WindSpeedMaxMPH,WindSpeedAvgMPH,GustSpeedMaxMPH,PrecipitationSumIn
2013-4-1,67,59,39,67,58,39,99,96,67,29.57,29.42,18,5,18,0.01
2013-4-2,60,48,33,60,46,28,99,92,38,29.76,29.59,11,4,11,0.00
2013-4-3,59,52,39,59,47,27,99,87,37,29.78,29.70,17,7,18,0.00
2013-4-4,50,44,41,44,40,27,99,88,43,29.72,29.52,8,2,9,0.90
2013-4-5,41,41,41,41,41,40,99,99,99,29.55,29.51,2,1,2,0.00
2013-4-6,74,56,34,74,56,34,99,99,92,29.74,29.56,15,4,15,0.00
2013-4-7,74,65,56,74,64,46,99,97,66,29.73,29.56,16,8,16,0.00
2013-4-8,79,69,60,78,69,59,99,99,99,29.66,29.53,19,8,19,0.00
2013-4-9,84,72,58,82,71,58,99,97,73,29.71,29.50,17,6,17,0.00
2013-4-10,86,76,66,85,67,58,99,78,46,29.62,29.36,15,7,15,0.00
2013-4-11,84,76,62,84,73,58,99,92,59,29.51,29.22,32,8,34,0.46
2013-4-12,69,59,48,69,58,47,99,98,86,29.50,29.12,16,5,16,0.20
2013-4-13,80,60,40,80,60,40,99,99,99,29.63,29.50,10,2,13,0.00
2013-4-14,72,59,41,72,58,41,99,98,74,29.59,29.44,14,3,14,0.00
2013-4-24,74,62,46,73,61,46,99,96,57,29.76,29.55,14,7,14,0.24
2013-4-25,71,53,38,71,52,38,99,95,65,29.88,29.76,10,3,10,0.00
2013-4-26,74,56,35,74,48,35,99,82,27,29.93,29.79,7,2,7,0.00
2013-4-27,58,53,51,57,53,46,99,98,65,29.91,29.66,11,2,11,1.00
2013-4-28,60,57,52,60,57,52,99,99,99,29.68,29.49,13,4,13,1.02
2013-4-29,78,64,55,72,58,54,99,86,45,29.58,29.42,10,4,10,0.02
2013-4-30,82,67,49,82,65,49,99,96,65,29.61,29.49,9,2,9,0.00